Location: Marcé
(47.5801°N, 0.3280°W)
Time: 02:46:55
(UTC+01:00)

Vanguard 1 Rocket - Pass Details

Date: 01 December 2021
Orbit: 651 x 4225 km, 34.3° (Epoch: 26 January)

Event Time Altitude Azimuth Distance (km) Brightness Sun altitude
Exits shadow 03:37:43 36° 155° (SSE) 3,488 10.1 -47.8°
Maximum altitude 03:38:57 36° 147° (SSE) 3,591 10.3 -47.6°
Drops below altitude 10° 03:56:22 10° 91° (E) 6,840 12.4 -44.9°
Sets 04:03:09 0° 85° (E) 8,223 13.0 -43.8°
